Simultaneous Nadir Overpasses (SNOs) Predictions

Prediction of SNOs between GOES-16 and METOP-B Satellite Orbit:

Table of predicted SNOs for the next 14.0 days since TLE Epoch: 8/6/2022
Index Date Time (GOES-16) GOES-16 Lat,Lon METOP-B Lat,Lon Distance(km) Time Diff (sec)
1 08/07/2022 14:38:08 -0.01, -75.21 0.47, -77.30 239.21 80
2 08/08/2022 14:20:09 -0.01, -75.21 -0.66, -72.31 330.32 80
3 08/10/2022 02:39:08 0.00, -75.20 -0.37, -76.90 193.81 80
4 08/11/2022 02:15:48 0.00, -75.21 0.76, -71.91 375.90 80
5 08/12/2022 14:37:20 -0.00, -75.23 0.25, -76.47 141.41 80
6 08/13/2022 14:13:59 -0.01, -75.24 -0.82, -71.47 428.95 80
7 08/15/2022 02:35:40 0.01, -75.25 -0.15, -76.07 93.55 80
8 08/16/2022 02:12:19 0.01, -75.26 0.93, -71.07 477.36 80
9 08/17/2022 14:33:50 -0.01, -75.30 0.08, -75.63 38.29 80
